FW7738 Weather Reports


Display with metric or nautical units.
time (UTC)temp
F
wind
direction
speed
MPH
gust
MPH
rain 1hr
in
rain 24hr
in
rain mn
in
humidity
%
barometer
mb
20260904101018 89 186 2.0 7.0 0.00 0.00 0.00 50 1018.4
20260904100034 88 143 3.0 6.0 0.00 0.00 0.00 51 1018.5
20260904095029 88 156 4.0 9.0 0.00 0.00 0.00 52 1018.5
20260904094024 87 168 4.0 7.0 0.00 0.00 0.00 54 1018.6
20260904093019 87 146 3.0 7.0 0.00 0.00 0.00 53 1018.7
20260904092035 86 162 4.0 7.0 0.00 0.00 0.00 54 1018.6
20260904091050 87 160 2.0 4.0 0.00 0.00 0.00 53 1018.6
20260904090025 88 7 1.0 3.0 0.00 0.00 0.00 52 1018.6
20260904085020 86 345 1.0 3.0 0.00 0.00 0.00 52 1018.4
20260904084035 85 196 0.0 3.0 0.00 0.00 0.00 55 1018.4
20260904083030 84 233 1.0 3.0 0.00 0.00 0.00 57 1018.5
20260904082025 83 220 1.0 3.0 0.00 0.00 0.00 60 1018.4
20260904081021 83 296 1.0 3.0 0.00 0.00 0.00 61 1018.3
20260904080036 82 292 0.0 3.0 0.00 0.00 0.00 62 1018.3
20260904075032 81 263 1.0 2.0 0.00 0.00 0.00 64 1018.4
20260904074047 81 275 0.0 2.0 0.00 0.00 0.00 65 1018.4
20260904073022 80 315 0.0 2.0 0.00 0.00 0.00 67 1018.5
20260904072058 79 268 1.0 2.0 0.00 0.00 0.00 69 1018.6
20260904071033 78 342 0.0 1.0 0.00 0.00 0.00 71 1018.6
20260904070048 78 4 0.0 1.0 0.00 0.00 0.00 74 1018.5
20260904065023 77 299 1.0 2.0 0.00 0.00 0.00 75 1018.7
20260904064019 77 291 0.0 2.0 0.00 0.00 0.00 77 1018.6
20260904063054 76 301 0.0 1.0 0.00 0.00 0.00 80 1018.7
20260904062030 76 277 1.0 2.0 0.00 0.00 0.00 82 1018.7
20260904061025 75 292 0.0 1.0 0.00 0.00 0.00 84 1018.6
20260904060021 75 286 0.0 1.0 0.00 0.00 0.00 84 1018.6
20260904055016 75 0.0 0.0 0.00 0.00 0.00 85 1018.5
20260904054051 75 0.0 0.0 0.00 0.00 0.00 85 1018.5
20260904053027 75 0.0 0.0 0.00 0.00 0.00 85 1018.5
20260904052022 75 0.0 0.0 0.00 0.00 0.00 85 1018.6
20260904051017 75 0.0 0.0 0.00 0.00 0.00 85 1018.6
20260904050033 74 0.0 0.0 0.00 0.00 0.00 85 1018.5
20260904045028 74 0.0 0.0 0.00 0.00 0.00 86 1018.5
20260904044023 74 0.0 0.0 0.00 0.00 0.00 86 1018.6
20260904043019 74 0.0 0.0 0.00 0.00 0.00 86 1018.6
20260904042034 74 0.0 0.0 0.00 0.00 0.00 86 1018.6
20260904041029 74 301 0.0 1.0 0.00 0.00 0.00 86 1018.6
20260904040045 74 301 1.0 1.0 0.00 0.00 0.00 86 1018.7
20260904035039 75 0.0 0.0 0.00 0.00 0.00 86 1018.6
20260904034034 75 0.0 0.0 0.00 0.00 0.00 85 1018.7
20260904033030 75 0.0 0.0 0.00 0.00 0.00 85 1018.7
20260904032026 75 0.0 0.0 0.00 0.00 0.00 84 1018.7
20260904031021 76 0.0 0.0 0.00 0.00 0.00 85 1018.9
20260904030056 76 287 0.0 1.0 0.00 0.00 0.00 85 1018.8
20260904025051 76 293 0.0 1.0 0.00 0.00 0.00 85 1018.8
20260904024027 76 290 0.0 1.0 0.00 0.00 0.00 85 1018.6
20260904023022 76 0.0 0.0 0.00 0.00 0.00 85 1018.8
20260904022017 76 0.0 0.0 0.00 0.00 0.00 85 1018.9
20260904021033 76 278 0.0 1.0 0.00 0.00 0.00 85 1019.0
20260904020028 76 275 0.0 1.0 0.00 0.00 0.00 84 1019.0
20260904015023 76 262 1.0 2.0 0.00 0.00 0.00 84 1019.1
20260904014039 76 274 1.0 2.0 0.00 0.00 0.00 83 1019.1
20260904013055 76 289 1.0 2.0 0.00 0.00 0.00 83 1019.2
20260904012030 76 265 1.0 2.0 0.00 0.00 0.00 84 1019.3
20260904011025 76 268 1.0 2.0 0.00 0.00 0.00 85 1019.4
20260904010021 77 269 0.0 2.0 0.00 0.00 0.00 86 1019.5
20260904005016 77 235 0.0 1.0 0.00 0.00 0.00 86 1019.5
20260904004031 77 273 1.0 2.0 0.00 0.00 0.00 86 1019.5
20260904003027 77 253 2.0 4.0 0.00 0.00 0.00 86 1019.4
20260904002021 77 260 2.0 4.0 0.00 0.00 0.00 86 1019.6
20260904001017 77 278 1.0 3.0 0.00 0.00 0.00 87 1019.6
20260904000033 77 284 1.0 2.0 0.00 0.00 0.00 87 1019.7
20260903235027 78 291 1.0 2.0 0.00 0.00 0.00 88 1019.8
20260903234022 78 306 1.0 3.0 0.00 0.00 0.00 88 1019.8
20260903233018 78 287 1.0 2.0 0.00 0.00 0.00 87 1019.9
20260903232034 78 298 1.0 3.0 0.00 0.00 0.00 87 1019.9
20260903231028 78 303 0.0 2.0 0.00 0.00 0.00 87 1019.9
20260903230024 78 0.0 0.0 0.00 0.00 0.00 87 1019.9
20260903225020 78 319 0.0 2.0 0.00 0.00 0.00 87 1020.0
20260903224035 78 0.0 0.0 0.00 0.00 0.00 87 1020.0
20260903223030 78 39 0.0 1.0 0.00 0.00 0.00 87 1020.1
20260903222026 78 39 0.0 1.0 0.00 0.00 0.00 87 1020.2
20260903221021 78 0.0 0.0 0.00 0.00 0.00 87 1020.2
20260903220016 78 0.0 0.0 0.00 0.00 0.00 87 1020.2
20260903215032 79 0.0 0.0 0.00 0.00 0.00 87 1020.4
20260903214047 79 43 0.0 1.0 0.00 0.00 0.00 87 1020.5
20260903213022 79 0.0 0.0 0.00 0.00 0.00 87 1020.6
20260903212038 79 0.0 0.0 0.00 0.00 0.00 87 1020.6
20260903211053 79 0.0 0.0 0.00 0.00 0.00 87 1020.6
20260903210028 79 0.0 0.0 0.00 0.00 0.00 87 1020.7
20260903205023 79 45 0.0 1.0 0.00 0.00 0.00 86 1020.6
20260903204018 79 48 0.0 1.0 0.00 0.00 0.00 86 1020.5
20260903203053 79 62 0.0 3.0 0.00 0.00 0.00 86 1020.3
20260903202030 79 67 0.0 1.0 0.00 0.00 0.00 86 1020.3
20260903201024 79 71 0.0 1.0 0.00 0.00 0.00 86 1020.4
20260903200019 79 63 1.0 2.0 0.00 0.00 0.00 86 1020.1
20260903195035 79 67 0.0 2.0 0.00 0.00 0.00 86 1020.0
20260903194030 79 80 1.0 4.0 0.00 0.00 0.00 85 1020.0
20260903193025 79 72 1.0 3.0 0.00 0.00 0.00 85 1019.8
20260903192020 79 71 1.0 4.0 0.00 0.00 0.00 85 1019.6
20260903191016 79 80 1.0 3.0 0.00 0.00 0.00 85 1019.5
20260903190032 79 88 2.0 4.0 0.00 0.00 0.00 84 1019.3
20260903185027 80 98 3.0 6.0 0.00 0.00 0.00 84 1019.2
20260903184022 80 89 2.0 4.0 0.00 0.00 0.00 84 1019.2
20260903183017 80 91 3.0 7.0 0.00 0.00 0.00 83 1019.1
20260903182033 80 93 5.0 8.0 0.00 0.00 0.00 83 1019.1
20260903181028 80 84 3.0 8.0 0.00 0.00 0.00 83 1019.0
20260903180104 80 95 5.0 9.0 0.00 0.00 0.00 82 1019.0
20260903175020 81 91 4.0 9.0 0.00 0.00 0.00 82 1018.9
20260903174035 81 91 4.0 9.0 0.00 0.00 0.00 80 1018.9
20260903173030 81 102 6.0 11.0 0.00 0.00 0.00 79 1018.9
20260903172046 81 100 5.0 9.0 0.00 0.00 0.00 79 1018.9
20260903171022 82 86 5.0 8.0 0.00 0.00 0.00 75 1018.8
20260903170016 82 96 7.0 13.0 0.00 0.00 0.00 75 1018.7
20260903165032 82 87 6.0 11.0 0.00 0.00 0.00 75 1018.8
20260903164027 82 102 7.0 11.0 0.00 0.00 0.00 76 1018.8
20260903163023 82 89 6.0 13.0 0.00 0.00 0.00 74 1018.8
20260903162018 82 107 8.0 15.0 0.00 0.00 0.00 74 1018.9
20260903161033 83 133 7.0 15.0 0.00 0.00 0.00 73 1018.9
20260903160029 84 88 6.0 14.0 0.00 0.00 0.00 71 1018.9
20260903155024 83 133 7.0 14.0 0.00 0.00 0.00 70 1018.9
20260903154019 84 109 7.0 15.0 0.00 0.00 0.00 70 1018.9
20260903153054 84 126 8.0 13.0 0.00 0.00 0.00 69 1019.0
20260903152030 84 120 7.0 14.0 0.00 0.00 0.00 68 1019.0
20260903151025 84 132 9.0 14.0 0.00 0.00 0.00 66 1019.0
20260903150020 84 111 8.0 14.0 0.00 0.00 0.00 66 1019.0
20260903145035 85 98 7.0 17.0 0.00 0.00 0.00 65 1019.0
20260903144030 85 107 8.0 14.0 0.00 0.00 0.00 65 1019.2
20260903143025 85 106 6.0 11.0 0.00 0.00 0.00 64 1019.3
20260903142101 85 102 7.0 13.0 0.00 0.00 0.00 63 1019.3
20260903141016 86 122 8.0 14.0 0.00 0.00 0.00 59 1019.3
20260903140031 86 97 6.0 10.0 0.00 0.00 0.00 59 1019.4
20260903135026 86 117 7.0 14.0 0.00 0.00 0.00 60 1019.5
20260903134021 86 120 7.0 14.0 0.00 0.00 0.00 61 1019.6
20260903133017 86 104 6.0 14.0 0.00 0.00 0.00 61 1019.7
20260903132032 87 104 7.0 13.0 0.00 0.00 0.00 58 1019.7
20260903131027 86 133 6.0 10.0 0.00 0.00 0.00 57 1019.9
20260903130022 86 105 6.0 13.0 0.00 0.00 0.00 58 1019.8
20260903125018 86 115 6.0 13.0 0.00 0.00 0.00 58 1019.9
20260903124033 86 122 7.0 16.0 0.00 0.00 0.00 61 1019.9
20260903123028 87 103 5.0 10.0 0.00 0.00 0.00 61 1020.0
20260903122023 86 128 5.0 10.0 0.00 0.00 0.00 64 1020.0
20260903121019 86 103 6.0 14.0 0.00 0.00 0.00 66 1020.1
20260903120034 86 116 6.0 14.0 0.00 0.00 0.00 67 1020.2
20260903115029 86 120 5.0 13.0 0.00 0.00 0.00 68 1020.2
20260903114025 85 127 6.0 10.0 0.00 0.00 0.00 69 1020.4
20260903113020 86 103 6.0 10.0 0.00 0.00 0.00 68 1020.4
20260903112115 86 128 5.0 10.0 0.00 0.00 0.00 68 1020.5
20260903111030 85 150 4.0 10.0 0.00 0.00 0.00 69 1020.6
20260903110025 85 156 5.0 8.0 0.00 0.00 0.00 70 1020.7
20260903105021 84 111 5.0 9.0 0.00 0.00 0.00 72 1020.8
20260903104016 83 111 6.0 14.0 0.00 0.00 0.00 74 1020.9
20260903103031 84 137 6.0 14.0 0.00 0.00 0.00 73 1021.0
20260903102027 84 122 6.0 13.0 0.00 0.00 0.00 73 1021.0